COSMOS 1823 DEB, 18756

Orbit data source: Space-Track

COSMOS 1823 DEB, 18756 is space debris in LEO originally from a launch on Fri, 20 Feb 1987 UTC launched from the Plesetsk Missile And Space Complex (PKMTR). Debris objects in space refer to the collection of defunct objects orbiting the Earth. Examples of debris include non-operational satellites, rocket bodies, and fragments generated from explosions, collisions, or faulty payload assembly.

Loading next visibility...
Identifier
18756, 1987-020AH
Orbit
LEO
Country
Flag of CISCIS
Related business
Manufacturer
Unknown
Mission
Spacecraft
Bus & Motor
Unknown
Mass
Unknown
Launch date (UTC)
1987-02-20 (39 years ago)
Launch vehicle
Unknown
Launch site
Plesetsk Missile And Space Complex (PKMTR)
Object type
Payload
Rocket body
Debris
Shape & HBR
Unknown shape, 0.1 m
Radar Cross Section
Medium (>0.1 m² and <1 m²)

Expand to show TLE details & history
Last TLE update: 3 days ago

TLE from 3 days ago
0 COSMOS 1823 DEB
1 18756U 87020AH  26171.36065691  .00000066  00000-0  59218-3 0  9997
2 18756  73.6323  20.6133 0032693 131.2707  42.0339 12.44188431746758
Epoch: 2026-06-20T08:39Z
TLE epoch observation values (Epoch: 2026-06-20T08:39:20.757Z)
Latitude
6.11561°
Longitude
160.40595°
Altitude
1,471.599 km
Speed
7.136 km/s
True Right ascension
13h 15m 16s
True Declination
6° 04' 57"
Sunlit
Object was in daylight at epoch
Visualization orbit readout
Latitude
Unknown
Longitude
Unknown
Altitude
Unknown
Speed
Unknown
Apparent Right ascension
Unknown
Apparent Declination
Unknown
Sunlit
N/A
Visualization observer readout
Local Sidereal Time
08:08:48
Azimuth
Unknown
Elevation
Unknown
Doppler factor
Unknown
Orbital elements
Apogee altitude
1,512.483 km
Perigee altitude
1,461.058 km
Semi-major axis
7,864.908 km
Eccentricity
0.00327
Inclination
73.6323°
RAAN
20.6133°
Arg. of periapsis
131.2707°
True anomaly
42.28551°
Mean anomaly
42.0339°
Eccentric anomaly
42.15963°
Mean motion
3.11174 °/min
Orbital period
115.69 mins
BSTAR
0.00059218
Loading maneuver chart data...
Computing Atmospheric mass density...

Documentation

Showing up to 5 results
|